077  
ASUS46 KPQR 280710  
RWROR  
 
OREGON REGIONAL WEATHER ROUNDUP  
NATIONAL WEATHER SERVICE PORTLAND OR  
1100 PM PST SAT FEB 27 2021  
 
NOTE: "FAIR" INDICATES FEW OR NO CLOUDS BELOW 12,000 FEET WITH  
NO SIGNIFICANT WEATHER AND/OR S TO VISIBILITY
.  
 
ORZ001>013-280800-  
NORTHWEST OREGON  
 
 
CITY SKY/WX TMP DP RH WIND PRES REMARKS
 
ASTORIA CLOUDY 43 41 93 S7 30.33F FOG  
TILLAMOOK CLOUDY 45 41 87 CALM 30.39R  
NEWPORT CLOUDY 43 39 87 CALM 30.41S  
FLORENCE CLOUDY 42 40 92 CALM 30.39F  
PORTLAND CLOUDY 46 36 68 S6 30.36S  
VANCOUVER WA CLOUDY 45 35 68 CALM 30.36R  
SCAPPOOSE CLOUDY 43 38 82 CALM 30.35S  
HILLSBORO CLOUDY 43 39 86 CALM 30.35S  
AURORA CLOUDY 45 38 76 S7 30.37S  
MCMINNVILLE CLOUDY 44 39 82 SW6 30.36S  
SALEM CLOUDY 44 36 73 S5 30.37S  
CORVALLIS CLOUDY 43 40 89 SE3 30.39S  
EUGENE CLOUDY 43 39 86 SE5 30.39S  
CRESWELL CLOUDY 41 41 100 CALM 30.39R  

 
 
ORZ021-028-280800-  
SOUTHWEST OREGON  
 
 
CITY SKY/WX TMP DP RH WIND PRES REMARKS
 
NORTH BEND PTCLDY 40 39 97 SE8 30.43R  
BROOKINGS CLEAR 40 35 83 CALM 30.37S  
ROSEBURG MOCLDY 40 35 83 CALM 30.39F  
SEXTON SUMMIT CLEAR 31 24 75 CALM 30.28F  
GRANTS PASS FAIR 34 30 86 CALM 30.41S  
MEDFORD CLOUDY 39 30 70 W3 30.37S  

 
 
ORZ014>016-041-280800-  
COLUMBIA GORGE  
 
 
CITY SKY/WX TMP DP RH WIND PRES REMARKS
 
TROUTDALE CLOUDY 45 36 70 CALM 30.36S  
HOOD RIVER CLOUDY 43 32 65 W12G17 30.31S  
THE DALLES PTCLDY 42 31 64 NW6 30.31S  

 
 
ORZ029>031-041-044-049-050-061>064-502-503-505>511-280800-  
EASTERN OREGON  
 
 
CITY SKY/WX TMP DP RH WIND PRES REMARKS
 
MADRAS NOT AVBL  
REDMOND PTCLDY 31 21 66 CALM 30.27S  
BEND MOCLDY 32 23 69 S6 30.28S  
PRINEVILLE CLOUDY 32 25 74 CALM 30.27S  
KLAMATH FALLS CLEAR 25 21 85 MISG 30.27S  
LAKEVIEW N/A N/A N/A N/A MISG N/A  
HERMISTON PTCLDY 42 28 57 SW15G24 30.27F  
PENDLETON CLEAR 37 27 67 SW13 30.25F WCI 29  
JOHN DAY CLEAR 24 19 81 E3 30.25S  
MEACHAM CLOUDY 28 22 78 CALM 30.19S  
LA GRANDE CLOUDY 25 22 88 CALM 30.27R  
BAKER CITY CLEAR 22 14 71 S8 30.25R  
BURNS CLEAR 18 11 74 NW3 30.25R  
ROME N/A 15 8 73 S8 30.23R  
ONTARIO MOCLDY 31 21 66 NW3 30.31S  

 
 
OTHER REGIONAL REPORTS  
 
CITY SKY/WX TMP DP RH WIND PRES REMARKS
 
SEATTLE CLOUDY 43 36 76 SW15 30.30S  
SPOKANE MOCLDY 32 18 56 S13 30.13F WCI 22  
VANCOUVER BC LGT RAIN 39 37 93 E7 30.28R  
PRINCE GEORGE LGT SNOW 30 28 93 S17 29.77S VSB 3/4 WCI 18  
DAWSON CREEK LGT SNOW 25 23 93 SE6 29.64F  
WHITEHORSE LGT SNOW 25 23 93 S17 29.26F WCI 11  
BOISE CLEAR 27 15 61 SW3 30.25S  
REDDING CLEAR 48 24 39 NE7 30.24R  
SAN FRANCISCO CLEAR 50 42 74 W9 30.18R  
 

 
 
 
 
CLICK HERE TO GO TO PREVIOUS BULLETINS.

The Nexlab OR Page Main Text Page